{"data":{"norad_id":66572,"epoch":"2026-05-24T18:46:59.257920Z","epoch_age_seconds":84074,"freshness":"FRESH","line1":"1 66572U 25268R   26144.78263030  .00021985  00000+0  80670-3 0  9993","line2":"2 66572  43.0004 277.6432 0001537 273.8714  86.1962 15.27554131 29599","mean_motion":15.27554131,"eccentricity":0.0001537,"inclination_deg":43.0004,"raan_deg":277.6432,"arg_perigee_deg":273.8714,"mean_anomaly_deg":86.1962,"bstar":0.0008067,"rev_number":2959,"period_min":94.268345113068,"perigee_km":482.07198201624,"apogee_km":484.18113443404,"semimajor_km":6861.2635582251,"source":"CELESTRAK","updated_at":"2026-05-25T13:38:21.282858Z"}}